www.pogodaiklimat.ru

Погода и климат >> Архив погоды >> Иран >> Tehran


АРХИВ ПОГОДЫ в Tehran

Время (UTC), дата Ветер
(напр.,м/с)
 
Видим.   Явления Облачность Т
(С)
Тd
(С)
f
(%)
Тe
(С)
Тes
(С)
Комфортность P
(гПа)
Po
(гПа)
Тmin
(С)
Tmax
(С)
R
(мм)
R24
(мм)
S
(см)
03 11.10 штиль 0 10 км 5/0
[Cs]
+17.3 +7.1 51 +17 +17 по сезону 1014.8 885.8 +16.5
06 11.10 штиль 0 5000 м мгла 4/0
[Cs]
+22.8 +5.3 32 +23 +31 комфорт 1015.1 886.5
09 11.10 Ю 3 6000 м мгла 5/3 1200 м
[Cu med, cong Ci fib]
+24.9 +5.2 28 +24 +31 комфорт 1013.5 885.2
12 11.10 ЮВ 3 10 км 6/6 750 м
[Cb calv Ci fib]
+27.2 +3.7 22 +26 +27 жарко 1011.9 883.8
15 11.10 В 3 10 км 8/5 1050 м
[Cu med, cong Ac trans Cs]
+24.4 +5.2 29 +24 +24 комфорт 1012.8 884.1 +27.5
18 11.10 З 10 8000 м гроза без осадков 9/5 900 м
[Cb calv Ac As Ci fib]
+21.8 +5.3 34 +22 +22 комфорт 1015.2 886.4
21 11.10 С 7 10 км 8/5 900 м
[Cb calv Ac As Ci fib]
+20.8 +3.1 31 +21 +21 комфорт 1012.8 884.8
00 12.10 СЗ 2 10 км {ливн. осадки, дождь} 6/3 1050 м
[St Ac As]
+17.9 +6.4 47 +18 +18 тепло 1013.3 885.2 96
03 12.10 штиль 0 10 км 5/1 1050 м
[Sc Ac As Ci fib]
+16.6 +7.0 53 +17 +17 по сезону 1014.5 885.5 +16.4
06 12.10 ЮЗ 2 10 км 3/0
[Ci fib]
+22.8 +4.8 31 +23 +29 комфорт 1014.5 886.1
09 12.10 Ю 4 10 км 3/3 1200 м
[Cu hum]
+25.7 +3.6 24 +25 +30 комфорт 1012.7 884.9
12 12.10 З 2 10 км 5/3 1050 м
[Cu med, cong Ci sp]
+27.3 +4.4 23 +26 +28 жарко 1011.6 883.7
15 12.10 З 5 10 км 5/1 1200 м
[Cu hum Ci]
+24.6 +4.4 27 +24 +24 комфорт 1012.5 883.7 +28.0
18 12.10 З 9 10 км 9/5 1050 м
[Cb calv Ac As]
+19.8 +8.8 49 +20 +20 по сезону 1014.9 886.2
21 12.10 СЗ 4 10 км в посл. час ливневой дождь 9/5 900 м
[Cb calv Ac As]
+21.0 +4.1 33 +22 +22 комфорт 1015.3 887.2
00 13.10 С 2 10 км {ливн. осадки} 9/4 1050 м
[Cb calv Ac As Cs]
+16.9 +9.3 61 +17 +17 по сезону 1015.9 887.4 0.0
03 13.10 З 3 10 км 10/4 1200 м
[Sc Ac As Cs]
+15.6 +9.3 66 +15 +15 прохладно 1018.6 889.0 +15.4
06 13.10 З 2 9000 м мгла 9/4 1050 м
[Sc Ac As]
+17.8 +8.4 54 +18 +20 прохладно 1021.2 890.7
09 13.10 ЮВ 5 8000 м мгла {дождь} 9/4 1050 м
[Cu hum Ac As]
+19.6 +8.6 49 +20 +22 прохладно 1020.0 890.3
12 13.10 ЮВ 2 8000 м мгла {ливн. осадки} 9/4 1050 м
[Cu hum Ac As]
+20.4 +7.8 44 +22 +23 комфорт 1019.8 889.4 0.0
15 13.10 ЮВ 2 10 км 9/4 1050 м
[Sc Ac As]
+19.5 +8.2 48 +21 +21 комфорт 1020.4 889.5 +20.8
18 13.10 Ю 3 8000 м мгла 6/4 1050 м
[Cb calv Ac As]
+18.3 +9.6 57 +19 +19 по сезону 1020.9 890.1
21 13.10 З 2 10 км 6/4 1050 м
[Cb calv Ac As]
+17.2 +8.9 58 +18 +18 по сезону 1020.4 889.8
00 14.10 СВ 2 10 км 6/4 1050 м
[Cb calv Ac As]
+16.0 +9.2 64 +16 +16 по сезону 1020.0 889.4
03 14.10 З 2 8000 м мгла 6/1 1200 м
[Sc diur, vesp Ac trans]
+14.8 +9.4 70 +15 +15 прохладно 1020.6 889.5 +14.2
06 14.10 Ю 4 6000 м мгла {гроза, ливн. осадки} 8/5 900 м
[Cb calv Ac As]
+15.8 +11.4 75 +15 +16 холодно 1021.3 890.2 1
09 14.10 ЮЗ 3 8000 м мгла 5/5 900 м
[Cb calv]
+19.6 +8.6 49 +21 +25 комфорт 1018.0 887.7
12 14.10 Ю 4 8000 м мгла 8/4 900 м
[Cb calv Ac As]
+21.0 +8.0 43 +22 +23 комфорт 1016.0 886.0
15 14.10 Ю 3 10 км 8/1 1050 м
[Sc Cs]
+20.2 +7.2 43 +21 +21 комфорт 1016.7 886.2 +21.6
18 14.10 СВ 2 10 км 4/3 1050 м
[Sc Ac trans]
+18.0 +7.1 49 +19 +19 по сезону 1017.2 886.4
21 14.10 ЮВ 3 10 км 3/1 1200 м
[Sc diur, vesp Ac trans]
+17.5 +7.8 53 +18 +18 по сезону 1015.5 885.6
00 15.10 СЗ 2 10 км 1/0
[Ac trans]
+15.2 +7.5 60 +15 +15 по сезону 1015.5 885.4
03 15.10 ЮВ 2 10 км 3/0
[Ci fib]
+15.1 +7.9 62 +15 +15 прохладно 1015.5 885.2 +14.4
06 15.10 ЮВ 3 5000 м мгла 6/1 1200 м
[Cu hum Ac As]
+17.8 +8.6 55 +18 +21 прохладно 1017.3 886.9
09 15.10 ЮЗ 5 5000 м пыль 4/4 1050 м
[Cu med, cong]
+22.7 +4.3 30 +23 +26 комфорт 1014.1 884.9
12 15.10 З 9 10 км 6/4 900 м
[Cb calv Ac cuf]
+24.7 +1.6 22 +24 +24 комфорт 1012.6 883.4
15 15.10 З 6 10 км 4/4 1050 м
[Sc diur, vesp]
+22.0 -2.0 20 +21 +21 комфорт 1014.2 884.2 +25.2
18 15.10 СЗ 3 10 км ясно +17.6 +6.8 49 +18 +18 по сезону 1016.7 886.2
21 15.10 СВ 3 10 км 1/0
[Ci fib]
+17.2 +6.7 50 +17 +17 по сезону 1016.7 887.2
00 16.10 ЮВ 2 10 км 6/1 1050 м
[Sc Ac As]
+17.6 +5.9 46 +18 +18 тепло 1016.2 887.2
03 16.10 штиль 0 10 км 8/1 1050 м
[Sc Ac As]
+16.2 +6.9 54 +16 +16 прохладно 1018.4 888.3 +16.0
06 16.10 Ю 3 10 км 5/1 1050 м
[Cu Sc Ac trans]
+16.5 +4.5 45 +16 +20 холодно 1021.4 890.0
09 16.10 З 4 10 км 4/3 1200 м
[Cu hum Ac trans]
+19.9 +4.4 36 +20 +25 прохладно 1019.5 888.9
12 16.10 В 5 10 км 6/6 1050 м
[Cb calv]
+20.8 +5.2 36 +22 +22 комфорт 1018.1 888.0
15 16.10 В 4 10 км 4/4 1050 м
[Cb calv Ac trans]
+18.4 +6.3 45 +18 +18 прохладно 1019.2 888.2 +21.8
18 16.10 СВ 2 10 км зарница 6/4 900 м
[Cb calv Ac As]
+17.8 +6.0 46 +18 +18 по сезону 1020.1 889.0
21 16.10 ЮВ 2 6000 м гроза, ливневой дождь 9/5 900 м
[Cb cap Ac As]
+14.0 +8.4 69 +14 +14 прохладно 1020.5 889.3
00 17.10 В 2 10 км {гроза, ливн. осадки} 9/4 1050 м
[Cb calv Ac As]
+14.5 +8.5 67 +14 +14 по сезону 1019.7 888.9 3
03 17.10 штиль 0 10 км 5/4 1050 м
[Sc Ac As Ci fib]
+13.5 +9.2 75 +13 +13 холодно 1021.2 889.5 +12.4
06 17.10 Ю 2 7000 м мгла 5/3 1050 м
[Cu hum Ac trans]
+15.4 +7.3 58 +15 +19 холодно 1022.1 890.7
09 17.10 ЮВ 2 8000 м мгла 6/4 1050 м
[Cu med, cong Ac trans]
+19.0 +6.2 43 +20 +25 прохладно 1021.0 889.5
12 17.10 З 2 10 км 4/3 1050 м
[Cu med, cong Ac trans]
+20.0 +4.5 36 +21 +23 комфорт 1018.2 887.3
15 17.10 Ю 2 10 км 3/3 1050 м
[Sc diur, vesp]
+18.4 +3.8 38 +19 +19 прохладно 1019.0 887.4 +20.4
18 17.10 штиль 0 10 км ясно +16.8 +4.8 45 +17 +17 по сезону 1019.2 887.7
21 17.10 штиль 0 10 км ясно +14.1 +5.7 57 +14 +14 прохладно 887.4

 

Местоположение метеостанции Tehran (Иран): широта 35.68 долгота 51.32 высота над уровнем моря 1191 м.

В архиве по умолчанию представлена погода в Tehran за последнюю неделю. Архивные данные за месяц целиком и за предыдущие месяцы, начиная с января 2011 года, Вы можете получить, выбрав интересующий диапазон дат из раскрывающегося списка и нажав кнопку "Ввод!".


*Определитесь, кто Вы:
робот инопланетянин человек

Внимание! Время в таблицах - всемирное. Для получения местного времени необходимо прибавить поправку, которая в Tehran равна 3.5 ч.

Смотрите также архив погоды в соседних городах и на ближайших метеорологических станциях:

Погода в Noshahr (Иран) (109 км)
Погода в Ghazvin (Иран) (135 км)
Погода в Ramsar (Иран) (148 км)
Погода в Eskandar Kola (Иран) (160 км)
Погода в Babolsar (Иран) (166 км)
Погода в Semnan (Иран) (187 км)
Погода в Kashan (Иран) (189 км)
Погода в Arak (Иран) (226 км)
Погода в Rasht (Иран) (227 км)
Погода в Anzali (Иран) (259 км)

Пояснения к столбцам:

Ветер - указаны скорость ветра в м/с - средняя за 10 мин, порывы в срок и между сроками (в фигурных скобках) и направление, откуда дует ветер: С - северный, СВ - северо-восточный, В - восточный, ЮВ - юго-восточный, Ю - южный, ЮЗ - юго-западный, З - западный, СЗ - северо-западный.
Видимость - горизонтальная дальность видимости в метрах или километрах. При видимости от 1 до 10 км при отсутствии осадков обычно наблюдается дымка, при ухудшении видимости до 1 км и менее - туман. В сухую погоду видимость может ухудшаться дымом, пылью или мглою.
Явления - указаны атмосферные явления, наблюдавшиеся в срок или в последний час перед сроком; фигурными скобками обозначены явления, наблюдавшиеся между сроками (за 1-3 часа до срока); квадратными скобками обозначены град или гололедные отложения с указанием их диаметра в мм.
Облачность - указаны через наклонную черту общая и нижняя облачность в баллах и высота нижней границы облаков в метрах; квадратными скобками обозначены формы облаков: Ci - перистые, Cs - перисто-слоистые, Cc - перисто-кучевые, Ac - высококучевые, As - высокослоистые, Sc - слоисто-кучевые, Ns - слоисто-дождевые, Cu - кучевые, Cb - кучево-дождевые. Подробнее классификацию облаков см. в Атласе облаков (PDF).
T - Температура воздуха - температура, измеренная на высоте 2 м над землей.
Td - Температура точки росы - температура, при понижении до которой содержащийся в воздухе водяной пар достигнет насыщения.
f - Относительная влажность воздуха - влажноcть воздуха, измеренная на высоте 2 м над землей.
Te - Эффективная температура - температура, которую ощущает одетый по сезону человек в тени. Характеристика душности погоды. При расчете учитывается влияние влажности воздуха и скорости ветра на теплоощущения человека.
Tes - Эффективная температура на солнце - температура, которую ощущает человек, с поправкой на солнечный нагрев. Характеристика знойности погоды. Зависит от высоты солнца над горизонтом, облачности и скорости ветра. Ночью, в пасмурную погоду, а также при ветре 12 м/с и более поправка равна нулю.
P - Атмосферное давление - приведенное к уровню моря атмосферное давление.
Po - Атмосферное давление - измеренное на уровне метеостанции атмосферное давление.
Tmin - Минимальная температура - минимум температуры воздуха на высоте 2 м над землей.
Tmax - Максимальная температура - максимум температуры воздуха на высоте 2 м над землей.
R - Количество осадков - Количество выпавших осадков за период времени, мм. При наведении курсора мыши на число - период времени, за который выпало указанное количество осадков.
R24 - Количество осадков - Количество выпавших осадков за 24 часа, мм.
S - Снежный покров - Высота снежного покрова, см. При наведении курсора мыши на число - состояние снежного покрова и степень покрытия местности в баллах.